|
NORAD ID: 9841 Int'l Code: 1977-012A
Perigee: 804.8 km
Apogee: 3,810.9 km
Inclination: 65.8 °
Period: 134.1 minutes
Semi major axis: 8678 km
Launch date: February 19, 1977
Source: Japan (JPN)
Two Line Element Set (TLE):
1 09841U 77012A 13143.81184190 .00000041 00000-0 21734-3 0 6298
2 09841 065.7574 060.2742 1731876 174.6898 237.2610 10.73765746421481
Source:
NASA's NSSDC Master Catalog entry for TANSEI 3 (MS-T3)
|